STARLINK-1757

decayed
NORAD ID: 46339 Int'l Des: 2020-062 Owner: SPXS Country: US Constellation: starlink
LEOCIRCULAR
グループ

STARLINK-1757について

説明を読み込み中...

高度履歴

Altitude vs Time

uPlot chart will show altitude changes over time

軌道要素

1 46339U 20062Q 21338.29080382 .48380163 12149-4 12515-2 0 9994
2 46339 53.0241 91.6072 0020743 161.8695 198.9472 16.43596696 70911
Epoch: Dec 4, 2021 • Age: 33145 hours

現在のステータス

Position data unavailable
打ち上げ日 Sep 3, 2020
運用期間 5 years
落下予定日 Dec 4, 2021
タイプ internet

技術仕様

分類 Payload
質量 260.00 kg
乾燥質量 248.00 kg
総質量 260.00 kg
長さ 0.20 m
直径 2.80 m
スパン 9.00 m
形状 Box + pan
製造者 SPXS
バスタイプ Starlink
フェーズステータス Reentered
所有者/国 SPXS/US

大規模コンステレーション

Loading constellations...